Regional Weather Roundup
Issued by NWS

Home | Current Version | Previous Version | Graphics & Text | Print | Product List | Glossary On
Versions: 1 2 3 4 5 6 7 8 9 10 11 12 13 14 15 16 17 18 19 20 21 22 23 24 25 26 27 28 29 30 31 32 33 34 35 36 37 38 39 40 41 42 43 44 45 46 47 48 49 50
000
ASUS45 KBOU 180307
RWRCO

WEATHER ROUNDUP FOR COLORADO
NATIONAL WEATHER SERVICE DENVER/BOULDER CO
800 PM MST TUE JAN 17 2017

NOTE: "FAIR" INDICATES FEW OR NO CLOUDS BELOW 12000 FEET WITH NO
SIGNIFICANT WEATHER AND/OR OBSTRUCTIONS TO VISIBILITY.

COZ001>005-013-030-031-180400-
...NORTHWEST COLORADO...

CITY           SKY/WX    TMP DP  RH WIND       PRES   REMARKS
CRAIG          FOG       15  11  83 E3        30.22R VSB 1/4
HAYDEN         CLOUDY    12   9  85 CALM      30.18S VSB 1/4
MEEKER         FAIR      15  12  88 CALM      30.18S
MOUNT WERNER   NOT AVBL
STEAMBOAT SPGS FAIR      16  15  96 CALM      30.18S
WALDEN           N/A    N/A N/A N/A CALM      30.17F VSB 1/2
$$

COZ006>008-011-180400-
...WEST CENTRAL VALLEYS...

CITY           SKY/WX    TMP DP  RH WIND       PRES   REMARKS
GRAND JUNCTION FAIR      31  29  92 CALM      30.17R
MONTROSE       CLOUDY    38  31  76 CALM      30.18S
EAGLE          CLEAR     21  18  86 CALM      30.21S
RIFLE          FAIR      28  23  81 SE5       30.18R WCI  23
DELTA          CLOUDY    40  32  73 CALM      30.17S
NUCLA          CLOUDY    36  30  80 NW6       30.19S
$$

COZ017>023-064>068-180400-
...SOUTHWEST COLORADO...

CITY           SKY/WX    TMP DP  RH WIND       PRES   REMARKS
DURANGO        CLOUDY    35  30  82 SW7       30.12S WCI  29
CORTEZ         CLOUDY    39  34  82 CALM      30.14F
PAGOSA SPRINGS CLOUDY    34  33  97 CALM      30.13S
TELLURIDE      FAIR      27  24  87 CALM      30.16F
WOLF CREEK PAS CLOUDY    18  18 100 SW3       30.19R
$$

COZ009-010-012-014-032>034-037-058>063-180400-
...CENTRAL COLORADO...

CITY           SKY/WX    TMP DP  RH WIND       PRES   REMARKS
ASPEN          FAIR      18  14  84 SW5       30.15S WCI  11
BUENA VISTA    FAIR      16  12  84 W10       30.10S WCI   4
COPPER MTN     FAIR      21  14  73 MISG      30.16F
BERTHOUD PASS  NOT AVBL
COTTONWOOD PAS FAIR      30  16  55 W10       30.11S WCI  21
GUNNISON       CLOUDY    18  17  96 N7        30.18S WCI   9
KREMMLING      FAIR      16  12  86 CALM      30.20S
LEADVILLE      FAIR      15   8  73 NE3       30.13S
MONARCH PASS   CLOUDY    18  16  93 MISG      30.25S
SALIDA         FAIR      31  22  68 NW10      30.17S WCI  23
SUNLIGHT       FAIR      19  18  93 E5        30.20F WCI  13
WILKERSON PASS FAIR      23   9  54 NE9       30.15F WCI  13
$$

COZ069>075-180400-
...SAN LUIS VALLEY/SANGRE DE CRISTO MOUNTAINS...

CITY           SKY/WX    TMP DP  RH WIND       PRES   REMARKS
ALAMOSA        CLOUDY    26  25  96 NW3       30.13R
LA VETA PASS   CLOUDY    23  21  93 NE16      30.12R FOG     WCI  10
SAGUACHE       FAIR      23  21  93 E7        30.13R WCI  15
$$

COZ035-036-038>040-180400-
...NORTHERN COLORADO FRONT RANGE...

CITY           SKY/WX    TMP DP  RH WIND       PRES   REMARKS
DENVER INTL AP FAIR      31  18  58 SW13      30.01F WCI  21
DMNS CITY PARK   N/A     34  26  74 S5        30.01S WCI  30
AURORA         PTCLDY    27  17  65 S10       30.02F WCI  18
FRONT RANGE AP NOT AVBL
ERIE MUNI ARPT FAIR      25  23  91 S5        30.01S WCI  19
BOULDER MUN AP FAIR      34  27  75 CALM      30.00S
CENTENNIAL     FAIR      30  22  72 S7        30.02F WCI  23
BROOMFIELD     CLEAR     36  21  55 S6        30.01F
FORT COLLINS   FAIR      32  25  74 CALM      30.02R
LONGMONT       FAIR      26  21  80 CALM      30.03S
$$

COZ041-046-047-076>085-087-088-180400-
...PIKES PEAK/PALMER DIVIDE AND SOUTHERN FOOTHILLS...

CITY           SKY/WX    TMP DP  RH WIND       PRES   REMARKS
COLO. SPRINGS  FAIR      29  23  78 N6        30.04R WCI  23
A. F. ACADEMY  FAIR      26  20  80 N8        30.03S WCI  17
SCHRIEVER AFB  NOT AVBL
ELLICOTT       FAIR     N/A N/A N/A CALM      30.02S
FALCON         FAIR      28  12  51 NW6       30.04R WCI  21
FORT CARSON    CLEAR     36  27  69 N6        30.04
LIMON          FAIR      20  19  96 NW3       30.02S
MONUMENT HILL  FAIR      19  10  68 SW5       30.05S WCI  13
TRINIDAD       FAIR      21  19  92 NW7       30.05R FOG     WCI  12
$$

COZ042>045-048>051-090-091-180400-
...NORTHEAST COLORADO...

CITY           SKY/WX    TMP DP  RH WIND       PRES   REMARKS
GREELEY ARPT   FAIR      27  26  96 NE3       30.03S
AKRON          FAIR      29  23  78 W10       30.00S WCI  20
BURLINGTON     FAIR      32  28  85 S12       30.04R WCI  23
WRAY           NOT AVBL
STERLING       FAIR      27  23  86 SW3       30.00S
HOLYOKE        FAIR      25  21  86 W9        30.00F WCI  15
FORT MORGAN    FAIR      29  24  84 W8        30.01F WCI  21
$$

COZ086-089-092>099-180400-
...SOUTHEAST COLORADO...

CITY           SKY/WX    TMP DP  RH WIND       PRES   REMARKS
PUEBLO         FOG       28  25  88 N3        30.05R VSB 1/4
LA JUNTA       FOG       23  21  92 SW10      30.07R VSB 1/4 WCI  12
LAMAR          FAIR      25  22  88 S8        30.06S WCI  16
SPRINGFIELD      N/A     29  27  92 SW10      30.06R WCI  20
$$



USA.gov is the U.S. government's official web portal to all federal, state and local government web resources and services.